[TLELIST] Archives

 

[list_settings.list_name] Current TLEs

January 15th 2014 PST

HST 1 20580U 90037B 14015.21829808 .00002829 00000-0 18508-3 0 4163 2 20580 028.4715 322.0674 0003314 090.8089 047.2265 15.04520031101653 ISS (ZARYA) 1 25544U 98067A 14015.21298854 .00012621 00000-0 22531-3 0 4634 2 25544 051.6500 137.8061 0006087 030.2718 041.3291 15.50424322867590 CXO 1 25867U 99040B 14017.14987108 -.00000052 00000-0 00000+0 0 9831 2 25867 076.4834 327.6993 8316803 275.7849 000.7419 00.37795800 11341 ____________________________________________________________________ These 2-Line ...Continue Reading

[list_settings.list_name] Current TLEs

January 14th 2014 PST

HST 1 20580U 90037B 14013.36020020 .00002918 00000-0 19135-3 0 4151 2 20580 028.4717 334.2633 0003312 072.6199 061.6339 15.04509189101375 ISS (ZARYA) 1 25544U 98067A 14014.44016882 .00013181 00000-0 23508-3 0 4588 2 25544 051.6501 141.6366 0005978 028.2195 047.0576 15.50406912867477 CXO 1 25867U 99040B 14014.50394475 -.00000177 00000-0 00000+0 0 9824 2 25867 076.4673 327.8171 8320774 275.8333 000.5032 00.37797426 11337 ____________________________________________________________________ These 2-Line ...Continue Reading

[list_settings.list_name] Current TLEs

January 13th 2014 PST

HST 1 20580U 90037B 14011.36882485 .00003937 00000-0 26242-3 0 4148 2 20580 028.4717 347.3344 0003338 053.3823 073.8757 15.04496584101077 ISS (ZARYA) 1 25544U 98067A 14013.21566907 .00013182 00000-0 23539-3 0 4529 2 25544 051.6503 147.7057 0005863 024.5727 051.7628 15.50373589867288 CXO 1 25867U 99040B 14014.50394475 -.00000177 00000-0 00000+0 0 9824 2 25867 076.4673 327.8171 8320774 275.8333 000.5032 00.37797426 11337 ____________________________________________________________________ These 2-Line ...Continue Reading

[list_settings.list_name] Current TLEs

January 12th 2014 PST

HST 1 20580U 90037B 14011.36882485 .00003937 00000-0 26242-3 0 4148 2 20580 028.4717 347.3344 0003338 053.3823 073.8757 15.04496584101077 ISS (ZARYA) 1 25544U 98067A 14012.44801424 .00013118 00000-0 23449-3 0 4472 2 25544 051.6471 151.5107 0005677 019.8508 089.1280 15.50349174867167 CXO 1 25867U 99040B 14014.50394475 -.00000177 00000-0 00000+0 0 9824 2 25867 076.4673 327.8171 8320774 275.8333 000.5032 00.37797426 11337 ____________________________________________________________________ These 2-Line ...Continue Reading

[list_settings.list_name] Current TLEs

January 11th 2014 PST

HST 1 20580U 90037B 14010.16812693 .00005342 00000-0 36033-3 0 4139 2 20580 028.4718 355.2156 0003298 041.8217 049.4069 15.04488954100886 ISS (ZARYA) 1 25544U 98067A 14011.48116730 .00013242 00000-0 23681-3 0 4403 2 25544 051.6488 156.3002 0005672 017.5631 091.6790 15.50326664867016 CXO 1 25867U 99040B 14011.85883760 -.00000379 00000-0 00000+0 0 9812 2 25867 076.4500 327.9621 8324543 275.8651 000.3861 00.37800110 11320 ____________________________________________________________________ These 2-Line ...Continue Reading

[list_settings.list_name] Current TLEs

January 10th 2014 PST

HST 1 20580U 90037B 14010.16812693 .00005342 00000-0 36033-3 0 4139 2 20580 028.4718 355.2156 0003298 041.8217 049.4069 15.04488954100886 ISS (ZARYA) 1 25544U 98067A 14010.44022191 .00012652 00000-0 22688-3 0 4337 2 25544 051.6482 161.4597 0005530 013.4924 042.2628 15.50295990866859 CXO 1 25867U 99040B 14011.85883760 -.00000379 00000-0 00000+0 0 9812 2 25867 076.4500 327.9621 8324543 275.8651 000.3861 00.37800110 11320 ____________________________________________________________________ These 2-Line ...Continue Reading

[list_settings.list_name] Current TLEs

January 9th 2014 PST

HST 1 20580U 90037B 14008.45095572 .00003451 00000-0 22865-3 0 4123 2 20580 028.4717 006.4867 0003289 024.1519 108.2689 15.04478908100631 ISS (ZARYA) 1 25544U 98067A 14009.40519008 .00010772 00000-0 19463-3 0 4258 2 25544 051.6489 166.5879 0005435 009.7565 025.6324 15.50260959866695 CXO 1 25867U 99040B 14011.85883760 -.00000379 00000-0 00000+0 0 9812 2 25867 076.4500 327.9621 8324543 275.8651 000.3861 00.37800110 11320 ____________________________________________________________________ These 2-Line ...Continue Reading

[list_settings.list_name] Current TLEs

January 8th 2014 PST

HST 1 20580U 90037B 14007.18258538 .00004736 00000-0 31827-3 0 4119 2 20580 028.4718 014.8116 0003192 011.9084 077.3123 15.04471044100437 ISS (ZARYA) 1 25544U 98067A 14008.44922119 .00010025 00000-0 18186-3 0 4186 2 25544 051.6486 171.3246 0005450 005.9360 090.7511 15.50236070866544 CXO 1 25867U 99040B 14009.21578124 -.00000567 00000-0 00000+0 0 9802 2 25867 076.4449 328.0879 8327628 275.9018 000.5456 00.37801176 11318 ____________________________________________________________________ These 2-Line ...Continue Reading

[list_settings.list_name] Current TLEs

January 7th 2014 PST

HST 1 20580U 90037B 14007.18258538 .00004736 00000-0 31827-3 0 4119 2 20580 028.4718 014.8116 0003192 011.9084 077.3123 15.04471044100437 ISS (ZARYA) 1 25544U 98067A 14007.47058625 .00009877 00000-0 17944-3 0 4117 2 25544 051.6484 176.1745 0005398 002.7358 028.7648 15.50214978866390 CXO 1 25867U 99040B 14009.21578124 -.00000567 00000-0 00000+0 0 9802 2 25867 076.4449 328.0879 8327628 275.9018 000.5456 00.37801176 11318 ____________________________________________________________________ These 2-Line ...Continue Reading

[list_settings.list_name] Current TLEs

January 6th 2014 PST

HST 1 20580U 90037B 14005.46883652 .00003412 00000-0 22603-3 0 4100 2 20580 028.4718 026.0598 0003074 353.9130 155.1779 15.04463497100183 ISS (ZARYA) 1 25544U 98067A 14006.44093328 .00010599 00000-0 19208-3 0 4042 2 25544 051.6481 181.2765 0005277 358.9447 042.5513 15.50196821866231 CXO 1 25867U 99040B 14006.57077286 -.00000553 00000-0 00000+0 0 9794 2 25867 076.4441 328.1926 8332827 275.9447 000.4650 00.37802203 11303 ____________________________________________________________________ These 2-Line ...Continue Reading
  • This mailing list is a public mailing list - anyone may join or leave, at any time.
  • This mailing list is announce-only.

International Space Station (ISS) / Hubble Space Telescope (HST) / Chandra X-Ray Observatory Orbital Data via EMAIL

Privacy Policy:

Private list